Change the Weather History Date:

Friday, February 22, 2013

  Actual Average Record
Temperature  
Mean Temperature 52 °F -  
Max Temperature 57 °F 65 °F 75 °F (2015)
Min Temperature 48 °F 42 °F 36 °F (2014)
Degree Days  
Heating Degree Days 12    
Growing Degree Days 2 (Base 50)    
Moisture  
Dew Point 49 °F    
Average Humidity 86    
Maximum Humidity 95    
Minimum Humidity 53    
Precipitation  
Precipitation 0.00 in - - ()
Sea Level Pressure  
Sea Level Pressure 30.09 in    
Wind  
Wind Speed 6 mph (ENE)    
Max Wind Speed 12 mph    
Max Gust Speed 16 mph    
Visibility 8 miles    
Events Rain , Thunderstorm    
Averages and records for this station are not official NWS values.
T = Trace of Precipitation, MM = Missing Value Source: NWS Daily Summary

Daily Weather History Graph

Daily Weather History Graph

Search for Another Location

Airport or City:

Trip Planner

Search our weather history database for the weather conditions in past years. The results will help you decide how hot, cold, wet, or windy it might be!

Date:

Astronomy

Feb. 22, 2013 Rise Set
Actual Time 7:07 AM EST 6:24 PM EST
Civil Twilight 6:42 AM EST 6:49 PM EST
Nautical Twilight 6:14 AM EST 7:18 PM EST
Astronomical Twilight 5:45 AM EST 7:46 PM EST
Moon 3:41 PM EST (2/22) 4:44 AM EST (2/22)
Length of Visible Light 12h 06m
Length of Day
11h 17m
Waxing Gibbous, 90% of the Moon is Illuminated
Feb 22
Waxing Gibbous
Feb 25
Full
Mar 4
Last Quarter
Mar 11
New
Mar 19
First Quarter

Hourly Weather History & Observations

Time (EST) Temp. Dew Point Humidity Pressure Visibility Wind Dir Wind Speed Gust Speed Precip Events Conditions
12:15 AM 56.3 °F 39.4 °F 53% 30.08 in 10.0 mi ESE 4.6 mph - N/A   Scattered Clouds
12:35 AM 55.8 °F 39.4 °F 54% 30.08 in 10.0 mi SE 3.5 mph - N/A   Clear
12:55 AM 55.2 °F 39.7 °F 56% 30.09 in 10.0 mi East 3.5 mph - N/A   Mostly Cloudy
1:15 AM 55.4 °F 39.2 °F 54% 30.09 in 10.0 mi ESE 4.6 mph - N/A   Mostly Cloudy
1:35 AM 55.4 °F 39.7 °F 56% 30.08 in 10.0 mi ESE 5.8 mph - N/A   Scattered Clouds
1:55 AM 55.4 °F 40.6 °F 58% 30.08 in 10.0 mi East 3.5 mph - N/A   Mostly Cloudy
2:15 AM 55.4 °F 41.7 °F 60% 30.07 in 10.0 mi ESE 6.9 mph - N/A   Overcast
2:35 AM 55.8 °F 43.7 °F 64% 30.07 in 10.0 mi ESE 5.8 mph - N/A   Overcast
2:55 AM 56.3 °F 45.0 °F 66% 30.07 in 10.0 mi ESE 6.9 mph - N/A   Overcast
3:15 AM 56.7 °F 46.0 °F 68% 30.07 in 10.0 mi East 5.8 mph - N/A   Overcast
3:35 AM 56.8 °F 46.9 °F 69% 30.08 in 10.0 mi NE 4.6 mph - N/A   Overcast
3:55 AM 56.8 °F 46.9 °F 69% 30.07 in 10.0 mi ENE 5.8 mph - N/A   Overcast
4:15 AM 57.2 °F 48.0 °F 71% 30.07 in 10.0 mi East 6.9 mph - N/A   Overcast
4:35 AM 57.2 °F 48.4 °F 72% 30.08 in 10.0 mi NE 4.6 mph - N/A   Overcast
4:55 AM 56.7 °F 49.1 °F 76% 30.06 in 10.0 mi East 9.2 mph - N/A   Overcast
5:15 AM 56.7 °F 49.3 °F 76% 30.06 in 10.0 mi East 8.1 mph - N/A   Overcast
5:35 AM 56.3 °F 50.5 °F 81% 30.07 in 10.0 mi East 4.6 mph - N/A Rain Rain
5:55 AM 56.3 °F 51.1 °F 83% 30.07 in 10.0 mi East 6.9 mph - N/A Rain Rain
6:15 AM 56.1 °F 51.8 °F 85% 30.07 in 10.0 mi East 5.8 mph - N/A   Light Drizzle
6:35 AM 56.3 °F 52.2 °F 86% 30.07 in 10.0 mi East 5.8 mph - N/A   Overcast
7:15 AM 56.7 °F 52.7 °F 87% 30.07 in 10.0 mi ENE 3.5 mph - N/A   Overcast
7:35 AM 56.3 °F 52.7 °F 88% 30.08 in 10.0 mi East 8.1 mph - N/A   Overcast
7:55 AM 55.8 °F 53.2 °F 91% 30.09 in 10.0 mi NE 4.6 mph - N/A Rain Light Rain
8:15 AM 55.4 °F 53.6 °F 94% 30.10 in 10.0 mi NE 5.8 mph - N/A Rain Rain
8:35 AM 55.4 °F 53.6 °F 94% 30.10 in 7.0 mi ENE 9.2 mph - N/A Rain Rain
8:55 AM 55.0 °F 53.1 °F 93% 30.11 in 10.0 mi NE 8.1 mph - N/A   Drizzle
9:15 AM 54.5 °F 52.7 °F 94% 30.12 in 7.0 mi NE 8.1 mph - N/A Rain Light Rain
9:35 AM 53.2 °F 51.4 °F 94% 30.12 in 2.5 mi NE 6.9 mph - N/A Rain Rain
9:55 AM 51.8 °F 50.0 °F 94% 30.14 in 2.0 mi NNE 8.1 mph - N/A Rain , Thunderstorm Heavy Thunderstorms and Rain
10:15 AM 51.3 °F 49.5 °F 94% 30.13 in 5.0 mi East 8.1 mph - N/A Rain Light Rain
10:35 AM 51.8 °F 49.6 °F 92% 30.13 in 10.0 mi East 5.8 mph - N/A   Light Drizzle
10:55 AM 51.8 °F 49.6 °F 92% 30.12 in 10.0 mi East 8.1 mph - N/A   Drizzle
11:15 AM 52.0 °F 50.0 °F 93% 30.12 in 10.0 mi NE 6.9 mph - N/A Rain Rain
11:35 AM 51.8 °F 49.6 °F 92% 30.13 in 10.0 mi ENE 6.9 mph - N/A   Drizzle
11:55 AM 51.8 °F 49.8 °F 93% 30.14 in 10.0 mi NE 4.6 mph - N/A Rain Light Rain
12:15 PM 52.2 °F 50.2 °F 93% 30.11 in 10.0 mi ENE 8.1 mph - N/A   Overcast
12:35 PM 52.7 °F 50.7 °F 93% 30.12 in 10.0 mi ENE 5.8 mph - N/A   Overcast
12:55 PM 52.9 °F 50.7 °F 92% 30.11 in 10.0 mi ENE 5.8 mph - N/A   Overcast
1:15 PM 52.9 °F 50.9 °F 93% 30.10 in 10.0 mi ENE 4.6 mph - N/A   Overcast
1:35 PM 53.6 °F 51.4 °F 92% 30.10 in 10.0 mi NE 5.8 mph - N/A   Overcast
1:55 PM 53.6 °F 51.8 °F 94% 30.09 in 10.0 mi NE 8.1 mph - N/A   Overcast
2:15 PM 53.6 °F 51.8 °F 94% 30.08 in 10.0 mi NE 5.8 mph - N/A   Overcast
2:35 PM 54.0 °F 52.0 °F 93% 30.08 in 7.0 mi ENE 4.6 mph - N/A   Overcast
2:55 PM 54.1 °F 52.0 °F 92% 30.07 in 7.0 mi NE 6.9 mph - N/A   Overcast
3:15 PM 54.3 °F 52.2 °F 92% 30.06 in 7.0 mi NE 5.8 mph - N/A   Overcast
3:35 PM 53.8 °F 51.8 °F 93% 30.06 in 7.0 mi NE 8.1 mph - N/A   Overcast
3:55 PM 53.2 °F 51.3 °F 93% 30.07 in 7.0 mi NE 8.1 mph - N/A   Overcast
4:15 PM 52.9 °F 51.1 °F 94% 30.05 in 5.0 mi NNE 9.2 mph - N/A   Overcast
4:35 PM 52.7 °F 50.9 °F 94% 30.07 in 7.0 mi NE 5.8 mph - N/A   Overcast
4:55 PM 52.7 °F 50.7 °F 93% 30.07 in 5.0 mi ENE 5.8 mph - N/A   Overcast
5:15 PM 52.7 °F 50.9 °F 94% 30.07 in 5.0 mi ENE 4.6 mph - N/A   Overcast
5:35 PM 52.7 °F 50.9 °F 94% 30.05 in 5.0 mi NE 5.8 mph - N/A   Overcast
5:55 PM 52.7 °F 50.9 °F 94% 30.05 in 5.0 mi ENE 6.9 mph - N/A   Overcast
6:15 PM 52.3 °F 50.7 °F 94% 30.06 in 5.0 mi North 4.6 mph - N/A   Overcast
6:35 PM 52.2 °F 50.5 °F 94% 30.06 in 5.0 mi East 5.8 mph - N/A   Overcast
6:55 PM 52.2 °F 50.7 °F 95% 30.09 in 5.0 mi North 3.5 mph - N/A   Overcast
7:15 PM 52.2 °F 50.5 °F 94% 30.10 in 4.0 mi ENE 3.5 mph - N/A Rain Rain
7:35 PM 52.0 °F 50.5 °F 95% 30.08 in 4.0 mi ENE 5.8 mph - N/A Rain Light Rain
7:55 PM 51.8 °F 50.4 °F 95% 30.10 in 5.0 mi NNE 5.8 mph - N/A Rain Light Rain
8:15 PM 51.6 °F 50.0 °F 94% 30.10 in 4.0 mi NNE 5.8 mph - N/A Rain Rain
8:35 PM 51.3 °F 50.0 °F 95% 30.04 in 5.0 mi ENE 11.5 mph - N/A Rain Light Rain
8:55 PM 51.3 °F 50.0 °F 95% 30.07 in 7.0 mi ESE 5.8 mph - N/A Rain , Thunderstorm Light Thunderstorms and Rain
9:15 PM 51.3 °F 50.0 °F 95% 30.07 in 7.0 mi NE 4.6 mph - N/A Rain Rain
9:35 PM 51.3 °F 49.6 °F 94% 30.09 in 4.0 mi Calm Calm - N/A Rain Heavy Rain
9:55 PM 51.1 °F 49.6 °F 95% 30.07 in 7.0 mi NNE 6.9 mph - N/A Rain Light Rain
10:15 PM 50.9 °F 49.3 °F 94% 30.11 in 7.0 mi North 10.4 mph 16.1 mph N/A Rain Heavy Rain
10:35 PM 49.6 °F 48.2 °F 95% 30.10 in 5.0 mi North 6.9 mph - N/A Rain Rain
10:55 PM 49.1 °F 47.3 °F 93% 30.09 in 7.0 mi NNE 6.9 mph - N/A Rain Rain
11:15 PM 48.7 °F 46.9 °F 93% 30.09 in 4.0 mi ENE 6.9 mph - N/A Rain Heavy Rain
11:35 PM 48.4 °F 46.6 °F 93% 30.07 in 5.0 mi NE 3.5 mph - N/A Rain Rain
11:55 PM 48.2 °F 46.6 °F 94% 30.06 in 5.0 mi East 3.5 mph - N/A Rain Rain